Time,TemperatureF,DewpointF,PressureIn,WindDirection,WindDirectionDegrees,WindSpeedMPH,WindSpeedGustMPH,Humidity,HourlyPrecipIn,Conditions,Clouds,dailyrainin,SolarRadiationWatts/m^2,SoftwareType,DateUTC
2013-09-26 00:22:00,56.0,46.0,-100.00,WNW,291,32.0,52.0,70,0.00,,,0.00,0.000000,,2013-09-26 07:22:00,
2013-09-26 00:32:00,56.0,46.0,-100.00,WNW,291,32.0,52.0,70,0.00,,,0.00,0.000000,,2013-09-26 07:32:00,
2013-09-26 00:42:00,56.0,46.0,-100.00,WNW,291,32.0,52.0,70,0.00,,,0.00,0.000000,,2013-09-26 07:42:00,
2013-09-26 00:50:00,56.0,46.0,-100.00,WNW,286,33.0,50.0,69,0.00,,,0.00,0.000000,,2013-09-26 07:50:00,
2013-09-26 01:22:00,56.0,46.0,-100.00,WNW,286,33.0,50.0,69,0.00,,,0.00,0.000000,,2013-09-26 08:22:00,
2013-09-26 01:32:00,56.0,46.0,-100.00,WNW,286,33.0,50.0,69,0.00,,,0.00,0.000000,,2013-09-26 08:32:00,
2013-09-26 01:42:00,56.0,46.0,-100.00,WNW,286,33.0,50.0,69,0.00,,,0.00,0.000000,,2013-09-26 08:42:00,
2013-09-26 01:50:00,54.0,44.0,-100.00,WNW,287,33.0,47.0,69,0.00,,,0.00,0.000000,,2013-09-26 08:50:00,
2013-09-26 02:22:00,54.0,44.0,-100.00,WNW,287,33.0,47.0,69,0.00,,,0.00,0.000000,,2013-09-26 09:22:00,
2013-09-26 02:33:00,54.0,44.0,-100.00,WNW,287,33.0,47.0,69,0.00,,,0.00,0.000000,,2013-09-26 09:33:00,
2013-09-26 02:43:00,54.0,44.0,-100.00,WNW,287,33.0,47.0,69,0.00,,,0.00,0.000000,,2013-09-26 09:43:00,
2013-09-26 02:50:00,54.0,43.0,-100.00,WNW,295,33.0,48.0,67,0.00,,,0.00,0.000000,,2013-09-26 09:50:00,
2013-09-26 03:23:00,54.0,43.0,-100.00,WNW,295,33.0,48.0,67,0.00,,,0.00,0.000000,,2013-09-26 10:23:00,
2013-09-26 03:32:00,54.0,43.0,-100.00,WNW,295,33.0,48.0,67,0.00,,,0.00,0.000000,,2013-09-26 10:32:00,
2013-09-26 03:42:00,54.0,43.0,-100.00,WNW,295,33.0,48.0,67,0.00,,,0.00,0.000000,,2013-09-26 10:42:00,
2013-09-26 03:50:00,55.0,45.0,-100.00,WNW,293,34.0,47.0,68,0.00,,,-99.99,0.000000,,2013-09-26 10:50:00,
2013-09-26 04:22:00,55.0,45.0,-100.00,WNW,293,34.0,47.0,68,0.00,,,-99.99,0.000000,,2013-09-26 11:22:00,
2013-09-26 04:33:00,55.0,45.0,-100.00,WNW,293,34.0,47.0,68,0.00,,,-99.99,0.000000,,2013-09-26 11:33:00,
2013-09-26 04:42:00,55.0,45.0,-100.00,WNW,293,34.0,47.0,68,0.00,,,-99.99,0.000000,,2013-09-26 11:42:00,
2013-09-26 04:50:00,53.0,44.0,-100.00,WNW,293,30.0,47.0,71,0.00,,,0.00,0.000000,,2013-09-26 11:50:00,
2013-09-26 05:21:00,53.0,44.0,-100.00,WNW,293,30.0,47.0,71,0.00,,,0.00,0.000000,,2013-09-26 12:21:00,
2013-09-26 05:32:00,53.0,44.0,-100.00,WNW,293,30.0,47.0,71,0.00,,,0.00,0.000000,,2013-09-26 12:32:00,
2013-09-26 05:42:00,53.0,44.0,-100.00,WNW,293,30.0,47.0,71,0.00,,,0.00,0.000000,,2013-09-26 12:42:00,
2013-09-26 05:50:00,53.0,43.0,-100.00,WNW,292,31.0,50.0,70,0.00,,,0.00,0.000000,,2013-09-26 12:50:00,
2013-09-26 06:21:00,53.0,43.0,-100.00,WNW,292,31.0,50.0,70,0.00,,,0.00,0.000000,,2013-09-26 13:21:00,
2013-09-26 06:32:00,53.0,43.0,-100.00,WNW,292,31.0,50.0,70,0.00,,,0.00,0.000000,,2013-09-26 13:32:00,
2013-09-26 06:42:00,53.0,43.0,-100.00,WNW,292,31.0,50.0,70,0.00,,,0.00,0.000000,,2013-09-26 13:42:00,
2013-09-26 06:50:00,53.0,43.0,-100.00,WNW,292,29.0,42.0,69,0.00,,,0.00,1.000000,,2013-09-26 13:50:00,
2013-09-26 07:22:00,53.0,43.0,-100.00,WNW,292,29.0,42.0,69,0.00,,,0.00,1.000000,,2013-09-26 14:22:00,
2013-09-26 07:32:00,53.0,43.0,-100.00,WNW,292,29.0,42.0,69,0.00,,,0.00,1.000000,,2013-09-26 14:32:00,
2013-09-26 07:42:00,53.0,43.0,-100.00,WNW,292,29.0,42.0,69,0.00,,,0.00,1.000000,,2013-09-26 14:42:00,
2013-09-26 07:50:00,56.0,46.0,-100.00,WNW,295,24.0,41.0,69,0.00,,,0.00,89.000000,,2013-09-26 14:50:00,
2013-09-26 08:22:00,56.0,46.0,-100.00,WNW,295,24.0,41.0,69,0.00,,,0.00,89.000000,,2013-09-26 15:22:00,
2013-09-26 08:33:00,56.0,46.0,-100.00,WNW,295,24.0,41.0,69,0.00,,,0.00,89.000000,,2013-09-26 15:33:00,
2013-09-26 08:44:00,56.0,46.0,-100.00,WNW,295,24.0,41.0,69,0.00,,,0.00,89.000000,,2013-09-26 15:44:00,
2013-09-26 08:50:00,58.0,45.0,-100.00,WNW,292,27.0,39.0,63,0.00,,,0.00,293.000000,,2013-09-26 15:50:00,
2013-09-26 09:24:00,58.0,45.0,-100.00,WNW,292,27.0,39.0,63,0.00,,,0.00,293.000000,,2013-09-26 16:24:00,
2013-09-26 09:33:00,58.0,45.0,-100.00,WNW,292,27.0,39.0,63,0.00,,,0.00,293.000000,,2013-09-26 16:33:00,
2013-09-26 09:43:00,58.0,45.0,-100.00,WNW,292,27.0,39.0,63,0.00,,,0.00,293.000000,,2013-09-26 16:43:00,
2013-09-26 09:50:00,60.0,45.0,-100.00,WNW,294,22.0,36.0,58,0.00,,,0.00,487.000000,,2013-09-26 16:50:00,
2013-09-26 10:23:00,60.0,45.0,-100.00,WNW,294,22.0,36.0,58,0.00,,,0.00,487.000000,,2013-09-26 17:23:00,
2013-09-26 10:34:00,60.0,45.0,-100.00,WNW,294,22.0,36.0,58,0.00,,,0.00,487.000000,,2013-09-26 17:34:00,
2013-09-26 10:43:00,60.0,45.0,-100.00,WNW,294,22.0,36.0,58,0.00,,,0.00,487.000000,,2013-09-26 17:43:00,
2013-09-26 10:50:00,60.0,46.0,-100.00,WNW,287,22.0,34.0,60,0.00,,,0.00,422.000000,,2013-09-26 17:50:00,
2013-09-26 11:22:00,60.0,46.0,-100.00,WNW,287,22.0,34.0,60,0.00,,,0.00,422.000000,,2013-09-26 18:22:00,
2013-09-26 11:32:00,60.0,46.0,-100.00,WNW,287,22.0,34.0,60,0.00,,,0.00,422.000000,,2013-09-26 18:32:00,
2013-09-26 11:42:00,60.0,46.0,-100.00,WNW,287,22.0,34.0,60,0.00,,,0.00,422.000000,,2013-09-26 18:42:00,
2013-09-26 11:50:00,64.0,44.0,-100.00,West,269,16.0,34.0,48,0.00,,,0.00,780.000000,,2013-09-26 18:50:00,
2013-09-26 12:22:00,64.0,44.0,-100.00,West,269,16.0,34.0,48,0.00,,,0.00,780.000000,,2013-09-26 19:22:00,
2013-09-26 12:32:00,64.0,44.0,-100.00,West,269,16.0,34.0,48,0.00,,,0.00,780.000000,,2013-09-26 19:32:00,
2013-09-26 12:43:00,64.0,44.0,-100.00,West,269,16.0,34.0,48,0.00,,,0.00,780.000000,,2013-09-26 19:43:00,
2013-09-26 12:50:00,66.0,40.0,-100.00,West,275,19.0,33.0,39,0.00,,,0.00,853.000000,,2013-09-26 19:50:00,
2013-09-26 13:22:00,66.0,40.0,-100.00,West,275,19.0,33.0,39,0.00,,,0.00,853.000000,,2013-09-26 20:22:00,
2013-09-26 13:32:00,66.0,40.0,-100.00,West,275,19.0,33.0,39,0.00,,,0.00,853.000000,,2013-09-26 20:32:00,
2013-09-26 13:42:00,66.0,40.0,-100.00,West,275,19.0,33.0,39,0.00,,,0.00,853.000000,,2013-09-26 20:42:00,
2013-09-26 13:50:00,66.0,38.0,-100.00,WNW,287,22.0,36.0,35,0.00,,,0.00,844.000000,,2013-09-26 20:50:00,
2013-09-26 14:23:00,66.0,38.0,-100.00,WNW,287,22.0,36.0,35,0.00,,,0.00,844.000000,,2013-09-26 21:23:00,
2013-09-26 14:34:00,66.0,38.0,-100.00,WNW,287,22.0,36.0,35,0.00,,,0.00,844.000000,,2013-09-26 21:34:00,
2013-09-26 14:44:00,66.0,38.0,-100.00,WNW,287,22.0,36.0,35,0.00,,,0.00,844.000000,,2013-09-26 21:44:00,
2013-09-26 14:50:00,67.0,37.0,-100.00,West,272,18.0,35.0,33,0.00,,,0.00,762.000000,,2013-09-26 21:50:00,
2013-09-26 15:24:00,67.0,37.0,-100.00,West,272,18.0,35.0,33,0.00,,,0.00,762.000000,,2013-09-26 22:24:00,
2013-09-26 15:32:00,67.0,37.0,-100.00,West,272,18.0,35.0,33,0.00,,,0.00,762.000000,,2013-09-26 22:32:00,
2013-09-26 15:42:00,67.0,37.0,-100.00,West,272,18.0,35.0,33,0.00,,,0.00,762.000000,,2013-09-26 22:42:00,
2013-09-26 15:50:00,68.0,37.0,-100.00,West,265,16.0,31.0,32,0.00,,,0.00,592.000000,,2013-09-26 22:50:00,
2013-09-26 16:23:00,68.0,37.0,-100.00,West,265,16.0,31.0,32,0.00,,,0.00,592.000000,,2013-09-26 23:23:00,
2013-09-26 16:34:00,68.0,37.0,-100.00,West,265,16.0,31.0,32,0.00,,,0.00,592.000000,,2013-09-26 23:34:00,
2013-09-26 16:42:00,68.0,37.0,-100.00,West,265,16.0,31.0,32,0.00,,,0.00,592.000000,,2013-09-26 23:42:00,
2013-09-26 16:50:00,68.0,33.0,-100.00,WNW,284,14.0,32.0,27,0.00,,,0.00,414.000000,,2013-09-26 23:50:00,
2013-09-26 17:22:00,68.0,33.0,-100.00,WNW,284,14.0,32.0,27,0.00,,,0.00,414.000000,,2013-09-27 00:22:00,
2013-09-26 17:32:00,68.0,33.0,-100.00,WNW,284,14.0,32.0,27,0.00,,,0.00,414.000000,,2013-09-27 00:32:00,
2013-09-26 17:43:00,68.0,33.0,-100.00,WNW,284,14.0,32.0,27,0.00,,,0.00,414.000000,,2013-09-27 00:43:00,
2013-09-26 17:50:00,67.0,29.0,-100.00,West,276,15.0,26.0,24,0.00,,,0.00,161.000000,,2013-09-27 00:50:00,
2013-09-26 18:23:00,67.0,29.0,-100.00,West,276,15.0,26.0,24,0.00,,,0.00,161.000000,,2013-09-27 01:23:00,
2013-09-26 18:32:00,67.0,29.0,-100.00,West,276,15.0,26.0,24,0.00,,,0.00,161.000000,,2013-09-27 01:32:00,
2013-09-26 18:42:00,67.0,29.0,-100.00,West,276,15.0,26.0,24,0.00,,,0.00,161.000000,,2013-09-27 01:42:00,
2013-09-26 18:50:00,63.0,33.0,-100.00,WNW,288,21.0,31.0,33,0.00,,,0.00,17.000000,,2013-09-27 01:50:00,
2013-09-26 19:22:00,63.0,33.0,-100.00,WNW,288,21.0,31.0,33,0.00,,,0.00,17.000000,,2013-09-27 02:22:00,
2013-09-26 19:32:00,63.0,33.0,-100.00,WNW,288,21.0,31.0,33,0.00,,,0.00,17.000000,,2013-09-27 02:32:00,
2013-09-26 19:42:00,63.0,33.0,-100.00,WNW,288,21.0,31.0,33,0.00,,,0.00,17.000000,,2013-09-27 02:42:00,
2013-09-26 19:50:00,61.0,45.0,-100.00,WNW,287,23.0,31.0,55,0.00,,,0.00,0.000000,,2013-09-27 02:50:00,
2013-09-26 20:22:00,61.0,45.0,-100.00,WNW,287,23.0,31.0,55,0.00,,,0.00,0.000000,,2013-09-27 03:22:00,
2013-09-26 20:34:00,61.0,45.0,-100.00,WNW,287,23.0,31.0,55,0.00,,,0.00,0.000000,,2013-09-27 03:34:00,
2013-09-26 20:44:00,61.0,45.0,-100.00,WNW,287,23.0,31.0,55,0.00,,,0.00,0.000000,,2013-09-27 03:44:00,
2013-09-26 20:50:00,59.0,43.0,-100.00,WNW,287,22.0,31.0,55,0.00,,,0.00,0.000000,,2013-09-27 03:50:00,
2013-09-26 21:24:00,59.0,43.0,-100.00,WNW,287,22.0,31.0,55,0.00,,,0.00,0.000000,,2013-09-27 04:24:00,
2013-09-26 21:33:00,59.0,43.0,-100.00,WNW,287,22.0,31.0,55,0.00,,,0.00,0.000000,,2013-09-27 04:33:00,
2013-09-26 21:44:00,59.0,43.0,-100.00,WNW,287,22.0,31.0,55,0.00,,,0.00,0.000000,,2013-09-27 04:44:00,
2013-09-26 21:50:00,56.0,39.0,-100.00,WNW,289,23.0,31.0,53,0.00,,,-99.99,0.000000,,2013-09-27 04:50:00,
2013-09-26 22:23:00,56.0,39.0,-100.00,WNW,289,23.0,31.0,53,0.00,,,-99.99,0.000000,,2013-09-27 05:23:00,
2013-09-26 22:34:00,56.0,39.0,-100.00,WNW,289,23.0,31.0,53,0.00,,,-99.99,0.000000,,2013-09-27 05:34:00,
2013-09-26 22:43:00,56.0,39.0,-100.00,WNW,289,23.0,31.0,53,0.00,,,-99.99,0.000000,,2013-09-27 05:43:00,
2013-09-26 22:50:00,56.0,38.0,-100.00,WNW,286,21.0,28.0,50,0.00,,,0.00,0.000000,,2013-09-27 05:50:00,
2013-09-26 23:22:00,56.0,38.0,-100.00,WNW,286,21.0,28.0,50,0.00,,,0.00,0.000000,,2013-09-27 06:22:00,
2013-09-26 23:32:00,56.0,38.0,-100.00,WNW,286,21.0,28.0,50,0.00,,,0.00,0.000000,,2013-09-27 06:32:00,
2013-09-26 23:42:00,56.0,38.0,-100.00,WNW,286,21.0,28.0,50,0.00,,,0.00,0.000000,,2013-09-27 06:42:00,
2013-09-26 23:50:00,57.0,40.0,-100.00,West,281,20.0,28.0,52,0.00,,,0.00,0.000000,,2013-09-27 06:50:00,